{"data":{"norad_id":63639,"intl_designator":"2025-083F","name":"STARLINK-33876","alt_names":[],"object_type":"PAYLOAD","status":"ACTIVE","operator":null,"country":"US","launch_date":"2025-04-25","launch_site_code":"AFETR","launch_vehicle":null,"mission":null,"orbit_class":"UNKNOWN","rcs_meters":null,"size_class":null,"mass_kg":null,"dimensions":null,"purposes":["comms"],"wikipedia_slug":null,"has_3d_model":false,"image_url":null,"decayed_at":null,"tle_current":{"epoch":"2026-09-20T12:31:46.347744Z","epoch_age_seconds":151110,"freshness":"FRESH","line1":"1 63639U 25083F   26263.52206421  .00010685  00000+0  39721-3 0  9990","line2":"2 63639  43.0022 344.9164 0001400 276.3922  83.6771 15.27583874 79869","mean_motion":15.27583874,"eccentricity":0.00014,"inclination_deg":43.0022,"raan_deg":344.9164,"arg_perigee_deg":276.3922,"mean_anomaly_deg":83.6771,"bstar":0.00039721,"rev_number":7986,"period_min":94.266509650258,"perigee_km":482.07693148508,"apogee_km":483.99806034393,"semimajor_km":6861.1744959145,"source":"CELESTRAK","updated_at":"2026-09-21T09:00:35.051511Z"}}}